QPF
0.15 0.20 0.17 0.12 0.12 0.09 0.09 0.09 0.11 0.10 0.09 0.07 0.05 0.04 0.04 0.03 0.03 0.04 0.04 0.04 0.04 0.04 0.03 0.04 0.07 0.09 0.06 0.05 0.05 0.05 0.04 0.04 0.03 0.03 0.04 0.07 0.10 0.11 0.10 0.07 0.05 0.04 0.04
0.08 0.14 0.15 0.12 0.11 0.08 0.08 0.07 0.08 0.07 0.07 0.06 0.04 0.04 0.04 0.03 0.03 0.03 0.03 0.04 0.04 0.05 0.04 0.04 0.04 0.04 0.03 0.04 0.04 0.04 0.04 0.03 0.02 0.03 0.04 0.06 0.08 0.09 0.11 0.10 0.07 0.04 0.04
0.07 0.12 0.11 0.10 0.09 0.07 0.06 0.06 0.06 0.06 0.07 0.06 0.04 0.04 0.03 0.03 0.03 0.02 0.04 0.04 0.04 0.05 0.04 0.03 0.05 0.05 0.04 0.04 0.04 0.05 0.05 0.04 0.04 0.05 0.05 0.03 0.05 0.07 0.10 0.10 0.09 0.05 0.04
0.07 0.11 0.11 0.08 0.06 0.05 0.04 0.04 0.04 0.05 0.07 0.06 0.04 0.03 0.03 0.03 0.03 0.03 0.03 0.04 0.04 0.05 0.04 0.04 0.05 0.04 0.04 0.04 0.04 0.05 0.06 0.06 0.07 0.07 0.04 0.02 0.02 0.05 0.08 0.09 0.11 0.08 0.06
0.05 0.07 0.10 0.10 0.07 0.06 0.06 0.05 0.04 0.06 0.06 0.05 0.04 0.03 0.03 0.03 0.04 0.04 0.04 0.04 0.04 0.04 0.04 0.05 0.05 0.04 0.04 0.04 0.04 0.04 0.06 0.08 0.07 0.06 0.02 0.01 0.01 0.04 0.07 0.10 0.10 0.09 0.08
0.04 0.04 0.07 0.08 0.08 0.08 0.07 0.06 0.06 0.06 0.04 0.04 0.05 0.04 0.03 0.02 0.03 0.03 0.03 0.04 0.05 0.05 0.04 0.05 0.04 0.06 0.05 0.05 0.04 0.03 0.05 0.07 0.07 0.04 0.02 0.01 0.02 0.04 0.07 0.09 0.10 0.09 0.10
0.03 0.04 0.06 0.07 0.09 0.09 0.08 0.08 0.07 0.06 0.06 0.06 0.06 0.05 0.05 0.04 0.04 0.03 0.03 0.04 0.05 0.05 0.04 0.04 0.05 0.06 0.07 0.06 0.05 0.05 0.06 0.06 0.05 0.04 0.03 0.03 0.04 0.05 0.06 0.08 0.11 0.10 0.11
0.04 0.04 0.06 0.06 0.06 0.06 0.06 0.06 0.06 0.06 0.07 0.06 0.06 0.04 0.04 0.05 0.04 0.03 0.03 0.03 0.06 0.08 0.06 0.05 0.06 0.07 0.07 0.06 0.06 0.06 0.05 0.05 0.03 0.02 0.02 0.02 0.02 0.03 0.05 0.05 0.07 0.09 0.13
0.04 0.03 0.04 0.06 0.05 0.06 0.07 0.05 0.04 0.04 0.04 0.04 0.04 0.04 0.04 0.04 0.04 0.05 0.04 0.04 0.04 0.05 0.05 0.06 0.08 0.09 0.10 0.09 0.08 0.07 0.07 0.08 0.05 0.03 0.03 0.02 0.01 0.02 0.04 0.06 0.06 0.07 0.09
0.04 0.04 0.04 0.05 0.05 0.06 0.05 0.05 0.03 0.03 0.03 0.03 0.05 0.07 0.07 0.05 0.05 0.05 0.06 0.04 0.04 0.04 0.05 0.07 0.08 0.08 0.10 0.11 0.10 0.08 0.08 0.09 0.07 0.06 0.06 0.03 0.02 0.03 0.05 0.06 0.07 0.07 0.07
0.04 0.04 0.04 0.05 0.06 0.05 0.03 0.03 0.02 0.02 0.03 0.05 0.05 0.07 0.11 0.04 0.03 0.05 0.07 0.06 0.04 0.05 0.06 0.07 0.07 0.06 0.07 0.08 0.11 0.10 0.08 0.07 0.06 0.05 0.07 0.04 0.03 0.04 0.06 0.07 0.08 0.07 0.06
0.06 0.06 0.06 0.05 0.04 0.03 0.02 0.01 0.01 0.01 0.02 0.03 0.04 0.04 0.04 0.02 0.01 0.02 0.05 0.07 0.07 0.08 0.08 0.07 0.07 0.06 0.07 0.06 0.09 0.12 0.10 0.08 0.08 0.06 0.07 0.05 0.04 0.05 0.06 0.07 0.07 0.07 0.06
0.04 0.04 0.04 0.03 0.02 0.01 0.01 0.01 0.00 0.00 0.01 0.03 0.02 0.03 0.02 0.02 0.02 0.03 0.03 0.06 0.08 0.10 0.09 0.08 0.08 0.08 0.09 0.07 0.07 0.08 0.10 0.09 0.07 0.06 0.04 0.04 0.05 0.06 0.08 0.07 0.07 0.07 0.07
0.02 0.02 0.02 0.01 0.01 0.01 0.01 0.01 0.01 0.00 0.01 0.02 0.02 0.02 0.02 0.02 0.02 0.03 0.02 0.04 0.04 0.05 0.06 0.07 0.07 0.07 0.07 0.08 0.08 0.05 0.04 0.04 0.04 0.05 0.06 0.07 0.05 0.06 0.07 0.07 0.07 0.08 0.08
0.02 0.01 0.01 0.01 0.01 0.01 0.01 0.01 0.01 0.00 0.00 0.00 0.01 0.01 0.02 0.02 0.02 0.03 0.03 0.03 0.03 0.03 0.04 0.05 0.06 0.06 0.05 0.06 0.07 0.05 0.03 0.03 0.04 0.04 0.07 0.11 0.05 0.05 0.06 0.08 0.08 0.08 0.08
0.01 0.01 0.01 0.01 0.01 0.01 0.01 0.01 0.01 0.00 0.00 0.00 0.00 0.00 0.01 0.01 0.02 0.02 0.02 0.03 0.03 0.03 0.02 0.03 0.04 0.05 0.05 0.07 0.07 0.04 0.03 0.03 0.03 0.04 0.06 0.08 0.06 0.07 0.07 0.09 0.09 0.08 0.09
0.01 0.00 0.01 0.01 0.01 0.01 0.01 0.02 0.01 0.01 0.01 0.01 0.00 0.00 0.01 0.01 0.01 0.02 0.02 0.02 0.03 0.03 0.03 0.04 0.05 0.07 0.07 0.07 0.06 0.04 0.03 0.03 0.02 0.03 0.05 0.05 0.04 0.05 0.07 0.09 0.09 0.09 0.09
0.01 0.01 0.01 0.01 0.01 0.02 0.02 0.02 0.02 0.01 0.01 0.01 0.01 0.01 0.01 0.01 0.02 0.03 0.04 0.05 0.07 0.09 0.09 0.09 0.09 0.10 0.08 0.08 0.06 0.05 0.04 0.03 0.02 0.02 0.04 0.05 0.03 0.02 0.04 0.06 0.08 0.10 0.10
0.01 0.01 0.01 0.02 0.03 0.03 0.02 0.02 0.02 0.01 0.01 0.01 0.01 0.02 0.02 0.03 0.03 0.05 0.06 0.08 0.10 0.12 0.12 0.10 0.10 0.08 0.07 0.08 0.06 0.06 0.04 0.02 0.02 0.01 0.04 0.04 0.02 0.02 0.03 0.04 0.06 0.09 0.10
0.01 0.01 0.02 0.03 0.03 0.04 0.05 0.03 0.02 0.01 0.01 0.01 0.02 0.02 0.02 0.03 0.04 0.03 0.03 0.04 0.06 0.08 0.08 0.07 0.07 0.05 0.05 0.05 0.04 0.05 0.04 0.02 0.01 0.01 0.02 0.02 0.02 0.02 0.02 0.03 0.03 0.04 0.06
0.01 0.01 0.02 0.03 0.04 0.05 0.05 0.02 0.01 0.02 0.02 0.02 0.02 0.02 0.02 0.02 0.03 0.03 0.04 0.04 0.04 0.05 0.06 0.06 0.04 0.03 0.04 0.05 0.06 0.05 0.04 0.02 0.02 0.02 0.02 0.02 0.02 0.02 0.02 0.02 0.02 0.02 0.04
0.01 0.01 0.02 0.03 0.03 0.04 0.04 0.03 0.03 0.04 0.04 0.05 0.04 0.04 0.03 0.03 0.04 0.04 0.04 0.04 0.05 0.05 0.05 0.06 0.05 0.04 0.04 0.06 0.06 0.05 0.04 0.02 0.02 0.02 0.02 0.02 0.02 0.02 0.02 0.02 0.02 0.02 0.02
0.01 0.01 0.02 0.02 0.03 0.04 0.03 0.03 0.03 0.04 0.06 0.09 0.07 0.05 0.05 0.05 0.06 0.08 0.07 0.06 0.05 0.05 0.05 0.06 0.06 0.05 0.05 0.06 0.07 0.07 0.06 0.04 0.03 0.04 0.04 0.04 0.03 0.03 0.02 0.02 0.02 0.02 0.02
0.01 0.02 0.02 0.03 0.04 0.04 0.03 0.02 0.02 0.03 0.05 0.08 0.07 0.06 0.06 0.07 0.08 0.09 0.11 0.10 0.07 0.07 0.07 0.08 0.07 0.07 0.08 0.06 0.06 0.07 0.07 0.05 0.04 0.04 0.05 0.07 0.06 0.03 0.02 0.01 0.02 0.02 0.02
0.02 0.03 0.03 0.04 0.04 0.04 0.05 0.04 0.03 0.03 0.04 0.04 0.04 0.04 0.06 0.09 0.09 0.08 0.10 0.11 0.11 0.09 0.09 0.11 0.13 0.13 0.12 0.09 0.07 0.07 0.07 0.05 0.04 0.04 0.06 0.09 0.10 0.05 0.02 0.02 0.02 0.03 0.03
0.02 0.03 0.04 0.05 0.06 0.06 0.07 0.07 0.06 0.04 0.05 0.05 0.05 0.05 0.06 0.07 0.09 0.08 0.08 0.09 0.10 0.10 0.11 0.14 0.16 0.15 0.12 0.10 0.08 0.09 0.09 0.08 0.07 0.06 0.06 0.07 0.10 0.08 0.03 0.02 0.03 0.03 0.03
MSLP
1011.07 1010.45 1010.04 1009.88 1009.96 1010.21 1010.54 1010.88 1011.16 1011.34 1011.44 1011.51 1011.61 1011.79 1012.07 1012.45 1012.90 1013.36 1013.78 1014.12 1014.36 1014.52 1014.63 1014.73 1014.86 1015.05 1015.28 1015.54 1015.79 1016.00 1016.15 1016.23 1016.27 1016.28 1016.31 1016.37 1016.48 1016.62 1016.78 1016.94 1017.08 1017.19 1017.28
1011.18 1010.63 1010.29 1010.19 1010.31 1010.59 1010.94 1011.27 1011.54 1011.73 1011.84 1011.92 1012.04 1012.23 1012.52 1012.90 1013.33 1013.75 1014.13 1014.43 1014.63 1014.77 1014.86 1014.97 1015.10 1015.29 1015.52 1015.76 1015.99 1016.18 1016.31 1016.39 1016.43 1016.46 1016.50 1016.58 1016.70 1016.84 1016.99 1017.13 1017.26 1017.36 1017.45
1011.21 1010.76 1010.50 1010.46 1010.63 1010.94 1011.30 1011.65 1011.93 1012.12 1012.25 1012.36 1012.49 1012.70 1012.98 1013.33 1013.72 1014.09 1014.40 1014.64 1014.81 1014.92 1015.01 1015.11 1015.26 1015.45 1015.68 1015.91 1016.13 1016.30 1016.42 1016.50 1016.56 1016.61 1016.68 1016.78 1016.91 1017.05 1017.19 1017.32 1017.43 1017.52 1017.60
1011.22 1010.87 1010.70 1010.74 1010.96 1011.30 1011.68 1012.03 1012.31 1012.52 1012.66 1012.79 1012.94 1013.15 1013.42 1013.73 1014.05 1014.35 1014.60 1014.78 1014.91 1015.00 1015.10 1015.22 1015.38 1015.58 1015.81 1016.04 1016.24 1016.40 1016.52 1016.60 1016.67 1016.75 1016.85 1016.97 1017.11 1017.25 1017.39 1017.50 1017.59 1017.67 1017.74
1011.27 1011.03 1010.96 1011.08 1011.34 1011.69 1012.07 1012.42 1012.70 1012.90 1013.06 1013.20 1013.36 1013.56 1013.80 1014.07 1014.33 1014.56 1014.75 1014.88 1014.98 1015.07 1015.18 1015.32 1015.51 1015.73 1015.96 1016.19 1016.37 1016.52 1016.63 1016.71 1016.79 1016.89 1017.00 1017.14 1017.29 1017.43 1017.56 1017.65 1017.73 1017.80 1017.87
1011.40 1011.28 1011.30 1011.48 1011.77 1012.13 1012.49 1012.80 1013.06 1013.25 1013.41 1013.55 1013.72 1013.91 1014.13 1014.36 1014.57 1014.74 1014.88 1014.97 1015.06 1015.16 1015.29 1015.47 1015.69 1015.93 1016.17 1016.38 1016.55 1016.68 1016.77 1016.84 1016.92 1017.02 1017.15 1017.30 1017.45 1017.58 1017.69 1017.77 1017.84 1017.90 1017.98
1011.63 1011.62 1011.73 1011.96 1012.26 1012.59 1012.91 1013.17 1013.38 1013.55 1013.69 1013.84 1014.00 1014.20 1014.40 1014.60 1014.78 1014.91 1015.01 1015.09 1015.18 1015.29 1015.46 1015.67 1015.92 1016.18 1016.42 1016.62 1016.76 1016.86 1016.93 1016.98 1017.05 1017.14 1017.27 1017.41 1017.55 1017.68 1017.78 1017.84 1017.90 1017.96 1018.04
1011.95 1012.04 1012.21 1012.47 1012.76 1013.05 1013.30 1013.50 1013.65 1013.77 1013.90 1014.04 1014.22 1014.42 1014.63 1014.82 1014.97 1015.09 1015.17 1015.24 1015.33 1015.47 1015.66 1015.90 1016.17 1016.44 1016.67 1016.85 1016.97 1017.04 1017.07 1017.10 1017.14 1017.23 1017.34 1017.47 1017.60 1017.71 1017.79 1017.85 1017.89 1017.95 1018.04
1012.31 1012.47 1012.70 1012.97 1013.24 1013.47 1013.64 1013.77 1013.86 1013.94 1014.05 1014.20 1014.39 1014.61 1014.83 1015.02 1015.17 1015.27 1015.34 1015.41 1015.50 1015.64 1015.84 1016.10 1016.38 1016.65 1016.87 1017.03 1017.12 1017.15 1017.15 1017.15 1017.17 1017.23 1017.33 1017.45 1017.56 1017.66 1017.72 1017.76 1017.80 1017.86 1017.96
1012.64 1012.87 1013.13 1013.40 1013.64 1013.81 1013.92 1013.97 1014.01 1014.06 1014.16 1014.32 1014.54 1014.78 1015.02 1015.22 1015.37 1015.46 1015.51 1015.56 1015.64 1015.78 1015.97 1016.22 1016.49 1016.75 1016.96 1017.09 1017.15 1017.16 1017.13 1017.11 1017.11 1017.15 1017.23 1017.33 1017.43 1017.51 1017.56 1017.59 1017.63 1017.68 1017.79
1012.88 1013.16 1013.46 1013.73 1013.94 1014.06 1014.12 1014.12 1014.12 1014.16 1014.26 1014.44 1014.68 1014.95 1015.21 1015.41 1015.56 1015.63 1015.66 1015.69 1015.74 1015.85 1016.03 1016.25 1016.50 1016.73 1016.91 1017.03 1017.07 1017.05 1017.01 1016.96 1016.95 1016.97 1017.04 1017.12 1017.20 1017.27 1017.31 1017.33 1017.36 1017.42 1017.52
1012.99 1013.32 1013.64 1013.92 1014.11 1014.21 1014.23 1014.22 1014.20 1014.24 1014.36 1014.56 1014.82 1015.11 1015.38 1015.59 1015.72 1015.78 1015.78 1015.78 1015.79 1015.87 1016.00 1016.19 1016.40 1016.60 1016.76 1016.85 1016.88 1016.85 1016.79 1016.74 1016.71 1016.71 1016.75 1016.82 1016.88 1016.93 1016.96 1016.98 1017.01 1017.06 1017.17
1012.97 1013.34 1013.68 1013.97 1014.16 1014.26 1014.28 1014.27 1014.26 1014.32 1014.46 1014.68 1014.96 1015.25 1015.52 1015.72 1015.84 1015.88 1015.86 1015.83 1015.81 1015.84 1015.94 1016.08 1016.26 1016.42 1016.55 1016.63 1016.63 1016.59 1016.53 1016.46 1016.41 1016.39 1016.40 1016.44 1016.48 1016.51 1016.53 1016.55 1016.57 1016.63 1016.73
1012.83 1013.22 1013.59 1013.89 1014.10 1014.22 1014.26 1014.27 1014.30 1014.38 1014.54 1014.77 1015.06 1015.35 1015.60 1015.79 1015.90 1015.92 1015.89 1015.84 1015.81 1015.81 1015.88 1015.99 1016.12 1016.26 1016.36 1016.40 1016.40 1016.34 1016.26 1016.17 1016.09 1016.03 1016.01 1016.00 1016.01 1016.02 1016.02 1016.04 1016.06 1016.12 1016.23
1012.60 1013.00 1013.39 1013.70 1013.94 1014.09 1014.17 1014.23 1014.30 1014.41 1014.59 1014.82 1015.09 1015.36 1015.59 1015.77 1015.87 1015.89 1015.87 1015.83 1015.80 1015.80 1015.85 1015.94 1016.05 1016.15 1016.22 1016.24 1016.21 1016.13 1016.02 1015.89 1015.77 1015.67 1015.58 1015.53 1015.49 1015.46 1015.45 1015.45 1015.48 1015.55 1015.65
1012.31 1012.71 1013.09 1013.42 1013.68 1013.88 1014.02 1014.14 1014.25 1014.39 1014.57 1014.79 1015.02 1015.26 1015.46 1015.62 1015.72 1015.77 1015.78 1015.78 1015.79 1015.81 1015.87 1015.95 1016.04 1016.11 1016.15 1016.15 1016.09 1015.97 1015.83 1015.65 1015.47 1015.30 1015.15 1015.02 1014.93 1014.86 1014.82 1014.81 1014.84 1014.91 1015.02
1011.97 1012.35 1012.72 1013.06 1013.36 1013.60 1013.81 1013.98 1014.15 1014.31 1014.49 1014.67 1014.86 1015.04 1015.20 1015.34 1015.45 1015.54 1015.61 1015.67 1015.74 1015.81 1015.90 1015.99 1016.06 1016.12 1016.13 1016.09 1015.99 1015.85 1015.65 1015.43 1015.19 1014.95 1014.72 1014.51 1014.35 1014.23 1014.16 1014.13 1014.16 1014.23 1014.34
1011.60 1011.94 1012.29 1012.63 1012.96 1013.26 1013.53 1013.77 1013.98 1014.17 1014.33 1014.47 1014.60 1014.72 1014.84 1014.95 1015.07 1015.20 1015.33 1015.47 1015.61 1015.75 1015.87 1015.98 1016.05 1016.08 1016.07 1016.00 1015.88 1015.70 1015.47 1015.20 1014.90 1014.59 1014.29 1014.01 1013.78 1013.60 1013.49 1013.45 1013.47 1013.54 1013.65
1011.16 1011.47 1011.79 1012.14 1012.50 1012.86 1013.20 1013.51 1013.77 1013.98 1014.12 1014.21 1014.27 1014.32 1014.38 1014.47 1014.59 1014.75 1014.95 1015.16 1015.38 1015.57 1015.74 1015.86 1015.93 1015.94 1015.91 1015.82 1015.68 1015.48 1015.23 1014.94 1014.60 1014.24 1013.87 1013.53 1013.23 1013.00 1012.85 1012.79 1012.80 1012.87 1012.97
1010.65 1010.91 1011.22 1011.58 1011.98 1012.40 1012.83 1013.21 1013.52 1013.75 1013.88 1013.92 1013.92 1013.90 1013.90 1013.94 1014.06 1014.24 1014.48 1014.75 1015.01 1015.25 1015.44 1015.57 1015.63 1015.64 1015.59 1015.49 1015.35 1015.16 1014.91 1014.61 1014.27 1013.88 1013.48 1013.09 1012.74 1012.46 1012.27 1012.18 1012.17 1012.23 1012.33
1010.02 1010.26 1010.57 1010.95 1011.40 1011.90 1012.40 1012.86 1013.24 1013.49 1013.62 1013.63 1013.57 1013.48 1013.42 1013.42 1013.51 1013.70 1013.95 1014.25 1014.54 1014.79 1014.99 1015.11 1015.16 1015.15 1015.09 1015.00 1014.87 1014.71 1014.50 1014.23 1013.90 1013.52 1013.11 1012.69 1012.31 1011.99 1011.76 1011.63 1011.60 1011.65 1011.74
1009.28 1009.51 1009.83 1010.25 1010.76 1011.33 1011.92 1012.47 1012.91 1013.21 1013.34 1013.34 1013.24 1013.10 1012.98 1012.94 1013.00 1013.17 1013.42 1013.71 1013.99 1014.24 1014.41 1014.51 1014.53 1014.51 1014.45 1014.37 1014.27 1014.16 1014.00 1013.79 1013.51 1013.16 1012.76 1012.34 1011.93 1011.58 1011.32 1011.16 1011.09 1011.11 1011.19
1008.42 1008.68 1009.02 1009.48 1010.05 1010.71 1011.38 1012.01 1012.52 1012.87 1013.04 1013.04 1012.93 1012.76 1012.61 1012.54 1012.56 1012.70 1012.92 1013.18 1013.44 1013.65 1013.78 1013.84 1013.83 1013.78 1013.72 1013.66 1013.60 1013.54 1013.45 1013.31 1013.09 1012.79 1012.42 1012.00 1011.59 1011.21 1010.91 1010.71 1010.61 1010.60 1010.65
1007.49 1007.78 1008.17 1008.67 1009.30 1010.02 1010.76 1011.46 1012.04 1012.46 1012.67 1012.71 1012.62 1012.46 1012.31 1012.21 1012.22 1012.33 1012.51 1012.74 1012.94 1013.10 1013.18 1013.19 1013.14 1013.06 1012.99 1012.94 1012.91 1012.90 1012.87 1012.79 1012.63 1012.38 1012.05 1011.65 1011.23 1010.83 1010.50 1010.26 1010.12 1010.07 1010.09
1006.53 1006.87 1007.30 1007.84 1008.51 1009.27 1010.06 1010.82 1011.47 1011.95 1012.23 1012.33 1012.29 1012.17 1012.04 1011.97 1011.97 1012.06 1012.22 1012.40 1012.56 1012.66 1012.69 1012.64 1012.54 1012.42 1012.32 1012.26 1012.25 1012.26 1012.26 1012.23 1012.12 1011.91 1011.60 1011.22 1010.81 1010.40 1010.04 1009.76 1009.58 1009.49 1009.47
1005.62 1006.00 1006.46 1007.02 1007.71 1008.49 1009.31 1010.11 1010.81 1011.35 1011.71 1011.89 1011.93 1011.88 1011.82 1011.78 1011.81 1011.90 1012.04 1012.19 1012.31 1012.35 1012.32 1012.22 1012.06 1011.89 1011.75 1011.66 1011.62 1011.62 1011.63 1011.61 1011.52 1011.33 1011.05 1010.68 1010.27 1009.86 1009.48 1009.18 1008.96 1008.83 1008.79
Thickness
5796 5800 5799 5797 5796 5795 5793 5792 5791 5789 5788 5786 5785 5784 5783 5782 5781 5780 5779 5778 5778 5777 5777 5776 5775 5774 5773 5772 5770 5769 5768 5768 5767 5767 5766 5765 5764 5763 5762 5761 5760 5759 5758
5800 5800 5798 5797 5795 5794 5792 5791 5789 5788 5787 5786 5784 5783 5782 5781 5780 5779 5778 5778 5777 5776 5775 5774 5773 5773 5772 5771 5769 5768 5767 5767 5767 5766 5765 5764 5763 5763 5761 5760 5759 5759 5757
5801 5799 5798 5796 5794 5793 5791 5790 5788 5787 5786 5785 5783 5782 5781 5780 5779 5778 5777 5777 5776 5775 5774 5773 5773 5772 5770 5769 5768 5767 5767 5766 5765 5765 5764 5763 5762 5762 5761 5760 5759 5758 5757
5800 5799 5797 5795 5793 5791 5790 5789 5788 5786 5785 5784 5782 5781 5780 5779 5778 5777 5776 5776 5775 5774 5774 5773 5772 5771 5769 5768 5767 5766 5766 5765 5764 5764 5763 5762 5762 5761 5761 5760 5759 5758 5757
5800 5799 5797 5794 5792 5790 5788 5787 5786 5785 5784 5783 5782 5780 5779 5778 5777 5776 5775 5775 5774 5773 5773 5772 5771 5769 5768 5767 5766 5765 5765 5764 5763 5762 5761 5761 5761 5761 5760 5760 5759 5758 5756
5798 5797 5796 5793 5791 5789 5787 5786 5785 5784 5783 5782 5781 5780 5779 5778 5776 5776 5775 5774 5773 5772 5772 5771 5769 5768 5767 5766 5765 5764 5764 5763 5762 5761 5761 5760 5760 5759 5759 5759 5758 5757 5756
5797 5796 5794 5793 5790 5788 5786 5784 5783 5783 5782 5781 5780 5780 5778 5777 5776 5775 5774 5773 5772 5771 5770 5769 5768 5767 5766 5765 5764 5763 5762 5762 5761 5761 5760 5760 5759 5759 5758 5758 5757 5756 5755
5796 5794 5793 5791 5789 5787 5785 5783 5782 5782 5781 5780 5779 5779 5778 5777 5776 5775 5773 5772 5771 5770 5769 5768 5767 5766 5765 5764 5763 5762 5762 5761 5761 5760 5760 5759 5759 5758 5757 5757 5756 5755 5754
5795 5793 5791 5790 5788 5786 5784 5782 5781 5781 5780 5779 5778 5777 5777 5776 5775 5774 5773 5772 5770 5769 5768 5767 5766 5765 5764 5763 5762 5761 5760 5760 5760 5759 5759 5759 5758 5757 5757 5756 5755 5754 5753
5793 5791 5789 5788 5787 5785 5783 5782 5781 5780 5779 5778 5777 5776 5775 5775 5774 5773 5772 5771 5770 5768 5768 5767 5765 5764 5763 5762 5761 5760 5759 5758 5758 5758 5758 5758 5758 5757 5756 5755 5755 5754 5753
5789 5789 5788 5786 5785 5784 5782 5781 5780 5779 5778 5777 5776 5775 5774 5774 5773 5772 5771 5770 5769 5768 5767 5766 5765 5764 5762 5761 5760 5759 5758 5757 5757 5756 5756 5757 5757 5757 5756 5756 5755 5754 5752
5786 5787 5787 5786 5784 5782 5781 5780 5779 5778 5777 5776 5775 5774 5774 5773 5772 5771 5770 5769 5768 5767 5766 5765 5764 5763 5762 5761 5760 5759 5758 5757 5756 5756 5756 5756 5757 5756 5756 5755 5754 5753 5752
5787 5786 5787 5785 5784 5782 5780 5779 5778 5777 5776 5775 5774 5774 5772 5771 5770 5769 5768 5768 5767 5766 5765 5764 5763 5762 5761 5760 5759 5758 5757 5756 5756 5755 5755 5756 5756 5756 5755 5755 5754 5752 5750
5787 5787 5786 5785 5784 5782 5780 5779 5777 5776 5775 5774 5774 5773 5772 5770 5769 5768 5767 5766 5766 5765 5764 5763 5762 5761 5760 5759 5758 5757 5756 5756 5755 5755 5754 5755 5755 5755 5754 5754 5753 5751 5750
5787 5787 5786 5785 5784 5782 5780 5779 5778 5776 5775 5774 5773 5772 5771 5770 5768 5767 5766 5765 5765 5764 5762 5762 5760 5760 5759 5758 5757 5756 5756 5755 5754 5753 5753 5753 5754 5753 5753 5752 5751 5750 5749
5789 5788 5787 5786 5785 5783 5781 5779 5778 5777 5775 5774 5773 5772 5771 5769 5767 5766 5765 5764 5764 5763 5762 5760 5759 5758 5758 5757 5756 5755 5755 5754 5753 5753 5753 5753 5753 5752 5752 5751 5750 5749 5748
5791 5790 5788 5787 5786 5784 5782 5780 5779 5777 5775 5774 5773 5772 5770 5769 5767 5765 5764 5763 5763 5762 5761 5760 5758 5757 5756 5755 5754 5754 5754 5753 5753 5752 5752 5752 5752 5751 5751 5750 5749 5748 5746
5792 5790 5789 5789 5786 5784 5783 5781 5779 5777 5775 5774 5773 5772 5771 5769 5767 5765 5764 5763 5762 5761 5760 5758 5757 5755 5754 5753 5752 5752 5752 5752 5752 5751 5751 5751 5750 5750 5750 5749 5748 5746 5745
5793 5791 5789 5788 5786 5784 5782 5780 5778 5777 5775 5774 5773 5772 5771 5769 5768 5765 5764 5762 5761 5760 5758 5757 5756 5754 5752 5751 5750 5750 5750 5750 5750 5750 5750 5750 5749 5749 5748 5747 5746 5745 5744
5793 5791 5789 5787 5785 5783 5780 5777 5776 5774 5774 5773 5772 5772 5771 5769 5767 5765 5763 5762 5760 5759 5757 5755 5753 5752 5751 5749 5749 5748 5748 5748 5749 5749 5749 5749 5748 5747 5747 5746 5745 5744 5743
5792 5789 5787 5785 5784 5781 5777 5774 5772 5771 5772 5772 5772 5771 5770 5769 5767 5765 5763 5761 5759 5757 5756 5754 5752 5750 5748 5747 5744 5743 5745 5747 5747 5747 5748 5747 5747 5746 5746 5745 5744 5743 5742
5791 5789 5787 5786 5784 5782 5779 5776 5774 5773 5772 5771 5771 5770 5769 5768 5767 5765 5762 5760 5759 5756 5754 5753 5751 5747 5746 5745 5742 5738 5736 5739 5742 5746 5745 5745 5746 5745 5744 5744 5742 5741 5740
5790 5789 5789 5786 5785 5782 5780 5776 5773 5771 5770 5768 5767 5767 5768 5767 5766 5764 5762 5760 5758 5756 5753 5752 5750 5747 5744 5743 5743 5738 5732 5730 5734 5740 5742 5743 5743 5742 5743 5742 5741 5740 5739
5791 5791 5788 5786 5783 5781 5779 5775 5771 5767 5764 5765 5765 5765 5765 5765 5764 5762 5761 5759 5757 5755 5753 5752 5751 5748 5744 5741 5740 5739 5737 5735 5731 5731 5736 5739 5740 5739 5740 5740 5740 5739 5738
5793 5790 5788 5785 5782 5780 5777 5774 5770 5766 5764 5764 5763 5762 5762 5762 5761 5760 5759 5758 5756 5754 5753 5751 5749 5747 5743 5740 5738 5736 5735 5733 5731 5728 5728 5731 5734 5736 5737 5738 5738 5737 5737
5793 5790 5786 5782 5779 5778 5775 5772 5769 5765 5762 5760 5759 5758 5758 5758 5758 5758 5757 5756 5754 5753 5751 5749 5747 5745 5742 5740 5739 5737 5734 5732 5730 5728 5726 5727 5728 5732 5734 5735 5735 5735 5735